When you browse on this site, cookies collect data to enhance your experience and personalize the content and advertising you see.
Visit our Privacy Policy to learn more. By continuing to use the site, you agree to this use of cookies and data.
  • In Hungary
  • List of Countries
  • For 7 days
  • Water Temperature
  • Satellite Maps
  • Weather Map
  • News
  • Weather Widgets
  • user-avatar
    Login

    Hourly Weather Nowy Dwór Mazowiecki

    Today, 25 June, Tuesday

    Time Temperature Precipitation Wind Pressure Humidity
    00:00 +18°C° 0 mm 3 mps 764 mmHg 80%
    01:00 +18°C° 0 mm 2 mps 764 mmHg 81%
    02:00 +18°C° 0 mm 2 mps 764 mmHg 83%
    03:00 +18°C° 0 mm 2 mps 763 mmHg 85%
    04:00 +17°C° 0 mm 2 mps 763 mmHg 87%
    05:00 +19°C° 0 mm 3 mps 763 mmHg 81%
    06:00 +21°C° 0 mm 3 mps 764 mmHg 76%
    07:00 +24°C° 0 mm 3 mps 764 mmHg 70%
    08:00 +25°C° 0 mm 3 mps 764 mmHg 66%
    09:00 +27°C° 0 mm 3 mps 764 mmHg 61%
    10:00 +28°C° 0 mm 4 mps 764 mmHg 56%
    11:00 +29°C° 0 mm 4 mps 764 mmHg 56%
    12:00 +30°C° 0 mm 4 mps 763 mmHg 55%
    13:00 +31°C° 0 mm 3 mps 763 mmHg 51%
    14:00 +30°C° 0 mm 4 mps 763 mmHg 54%
    15:00 +30°C° 0 mm 4 mps 762 mmHg 57%
    16:00 +30°C° 0 mm 4 mps 762 mmHg 59%
    17:00 +29°C° 0 mm 4 mps 762 mmHg 64%
    18:00 +28°C° 0 mm 3 mps 762 mmHg 68%
    19:00 +27°C° 0 mm 3 mps 762 mmHg 72%
    20:00 +26°C° 0 mm 3 mps 762 mmHg 74%
    21:00 +25°C° 0 mm 3 mps 762 mmHg 76%
    22:00 +24°C° 0 mm 3 mps 762 mmHg 77%
    23:00 +24°C° 0 mm 3 mps 762 mmHg 79%

    Tomorrow, 26 June, Wednesday

    Time Temperature Precipitation Wind Pressure Humidity
    00:00 +22°C° 0 mm 3 mps 762 mmHg 80%
    01:00 +22°C° 0 mm 3 mps 762 mmHg 82%
    02:00 +22°C° 0.1 mm 3 mps 762 mmHg 85%
    03:00 +21°C° 0.1 mm 3 mps 761 mmHg 88%
    04:00 +21°C° 0.1 mm 3 mps 761 mmHg 91%
    05:00 +24°C° 0 mm 3 mps 761 mmHg 86%
    06:00 +25°C° 0 mm 3 mps 761 mmHg 82%
    07:00 +26°C° 0 mm 4 mps 761 mmHg 77%
    08:00 +28°C° 0 mm 4 mps 760 mmHg 71%
    09:00 +30°C° 0 mm 4 mps 760 mmHg 66%
    10:00 +33°C° 0 mm 3 mps 759 mmHg 60%
    11:00 +33°C° 0 mm 4 mps 759 mmHg 56%
    12:00 +34°C° 0 mm 5 mps 758 mmHg 52%
    13:00 +35°C° 0 mm 5 mps 758 mmHg 48%
    14:00 +35°C° 0 mm 5 mps 757 mmHg 49%
    15:00 +35°C° 0 mm 5 mps 757 mmHg 49%
    16:00 +35°C° 0 mm 5 mps 756 mmHg 49%
    17:00 +34°C° 0 mm 4 mps 756 mmHg 56%
    18:00 +32°C° 0 mm 4 mps 755 mmHg 62%
    19:00 +30°C° 0 mm 3 mps 755 mmHg 69%
    20:00 +29°C° 0.3 mm 3 mps 755 mmHg 71%
    21:00 +28°C° 0.3 mm 3 mps 755 mmHg 74%
    22:00 +27°C° 0.3 mm 3 mps 754 mmHg 77%
    23:00 +26°C° 0.4 mm 4 mps 754 mmHg 81%

    Day after tomorrow, 27 June, Thursday

    Time Temperature Precipitation Wind Pressure Humidity
    00:00 +25°C° 0.4 mm 5 mps 754 mmHg 84%
    01:00 +23°C° 0.4 mm 5 mps 754 mmHg 88%
    02:00 +22°C° 0 mm 6 mps 754 mmHg 89%
    03:00 +21°C° 0 mm 6 mps 754 mmHg 89%
    04:00 +20°C° 0 mm 6 mps 754 mmHg 90%
    05:00 +20°C° 0 mm 7 mps 754 mmHg 86%
    06:00 +21°C° 0 mm 7 mps 754 mmHg 82%
    07:00 +21°C° 0 mm 8 mps 754 mmHg 78%
    08:00 +21°C° 0 mm 7 mps 754 mmHg 75%
    09:00 +21°C° 0 mm 7 mps 755 mmHg 72%
    10:00 +21°C° 0 mm 7 mps 755 mmHg 70%
    11:00 +21°C° 0 mm 7 mps 755 mmHg 68%
    12:00 +22°C° 0 mm 7 mps 755 mmHg 67%
    13:00 +22°C° 0 mm 7 mps 755 mmHg 65%
    14:00 +22°C° 0.5 mm 7 mps 755 mmHg 67%
    15:00 +22°C° 0.5 mm 7 mps 755 mmHg 70%
    16:00 +22°C° 0.5 mm 7 mps 755 mmHg 72%
    17:00 +21°C° 0.2 mm 6 mps 755 mmHg 75%
    18:00 +20°C° 0.2 mm 5 mps 755 mmHg 78%
    19:00 +19°C° 0.2 mm 4 mps 755 mmHg 81%
    20:00 +18°C° 0 mm 4 mps 755 mmHg 83%
    21:00 +17°C° 0 mm 4 mps 756 mmHg 84%
    22:00 +15°C° 0 mm 4 mps 756 mmHg 86%
    23:00 +14°C° 0 mm 4 mps 757 mmHg 87%

    28 June, Friday

    Time Temperature Precipitation Wind Pressure Humidity
    00:00 +13°C° 0 mm 3 mps 757 mmHg 88%
    01:00 +12°C° 0 mm 3 mps 757 mmHg 89%
    02:00 +12°C° 0 mm 3 mps 757 mmHg 88%
    03:00 +12°C° 0 mm 3 mps 757 mmHg 88%
    04:00 +11°C° 0 mm 3 mps 757 mmHg 88%
    05:00 +13°C° 0 mm 3 mps 757 mmHg 81%
    06:00 +15°C° 0 mm 4 mps 757 mmHg 74%
    07:00 +17°C° 0 mm 4 mps 757 mmHg 67%
    08:00 +19°C° 0 mm 5 mps 757 mmHg 62%
    09:00 +20°C° 0 mm 6 mps 757 mmHg 57%
    10:00 +21°C° 0 mm 7 mps 757 mmHg 52%
    11:00 +22°C° 0.1 mm 7 mps 757 mmHg 52%
    12:00 +22°C° 0.1 mm 7 mps 757 mmHg 51%
    13:00 +22°C° 0.1 mm 7 mps 756 mmHg 51%
    14:00 +22°C° 0 mm 7 mps 756 mmHg 50%
    15:00 +22°C° 0 mm 7 mps 756 mmHg 50%
    16:00 +21°C° 0 mm 7 mps 756 mmHg 49%
    17:00 +20°C° 0 mm 6 mps 757 mmHg 54%
    18:00 +19°C° 0 mm 5 mps 757 mmHg 60%
    19:00 +16°C° 0 mm 5 mps 757 mmHg 65%
    20:00 +15°C° 0 mm 5 mps 758 mmHg 69%
    21:00 +14°C° 0 mm 4 mps 758 mmHg 72%
    22:00 +12°C° 0 mm 4 mps 758 mmHg 76%
    23:00 +12°C° 0 mm 4 mps 759 mmHg 80%

    29 June, Saturday

    Time Temperature Precipitation Wind Pressure Humidity
    00:00 +11°C° 0 mm 3 mps 759 mmHg 83%
    01:00 +10°C° 0 mm 3 mps 759 mmHg 87%
    02:00 +10°C° 0 mm 3 mps 759 mmHg 87%
    03:00 +10°C° 0 mm 3 mps 759 mmHg 86%
    04:00 +10°C° 0 mm 3 mps 759 mmHg 85%
    05:00 +11°C° 0 mm 3 mps 759 mmHg 78%
    06:00 +13°C° 0 mm 3 mps 759 mmHg 71%
    07:00 +16°C° 0 mm 3 mps 759 mmHg 64%
    08:00 +18°C° 0 mm 3 mps 759 mmHg 58%
    09:00 +20°C° 0 mm 3 mps 759 mmHg 52%
    10:00 +21°C° 0 mm 3 mps 759 mmHg 47%
    11:00 +22°C° 0 mm 4 mps 758 mmHg 48%
    12:00 +23°C° 0 mm 4 mps 758 mmHg 49%
    13:00 +25°C° 0 mm 4 mps 757 mmHg 50%
    14:00 +25°C° 0 mm 4 mps 757 mmHg 50%
    15:00 +25°C° 0 mm 4 mps 757 mmHg 51%
    16:00 +26°C° 0 mm 5 mps 757 mmHg 51%
    17:00 +25°C° 0 mm 4 mps 757 mmHg 57%
    18:00 +24°C° 0 mm 3 mps 757 mmHg 63%
    19:00 +23°C° 0 mm 2 mps 757 mmHg 70%
    20:00 +20°C° 0 mm 2 mps 757 mmHg 73%
    21:00 +19°C° 0 mm 2 mps 757 mmHg 76%
    22:00 +18°C° 0 mm 2 mps 757 mmHg 79%
    23:00 +18°C° 0 mm 2 mps 757 mmHg 78%

    30 June, Sunday

    Time Temperature Precipitation Wind Pressure Humidity
    00:00 +17°C° 0 mm 2 mps 757 mmHg 77%
    01:00 +16°C° 0 mm 3 mps 757 mmHg 76%
    02:00 +16°C° 0 mm 3 mps 756 mmHg 76%
    03:00 +16°C° 0 mm 3 mps 756 mmHg 76%
    04:00 +14°C° 0 mm 3 mps 756 mmHg 76%
    05:00 +17°C° 0 mm 3 mps 756 mmHg 72%
    06:00 +19°C° 0 mm 3 mps 756 mmHg 67%
    07:00 +21°C° 0 mm 3 mps 756 mmHg 63%
    08:00 +22°C° 0 mm 4 mps 756 mmHg 59%
    09:00 +25°C° 0 mm 4 mps 756 mmHg 55%
    10:00 +27°C° 0 mm 4 mps 756 mmHg 50%
    11:00 +28°C° 0 mm 4 mps 755 mmHg 48%
    12:00 +29°C° 0 mm 4 mps 755 mmHg 46%
    13:00 +30°C° 0 mm 4 mps 754 mmHg 43%
    14:00 +30°C° 0 mm 4 mps 754 mmHg 43%
    15:00 +30°C° 0 mm 4 mps 754 mmHg 43%
    16:00 +30°C° 0 mm 4 mps 753 mmHg 44%
    17:00 +29°C° 0 mm 4 mps 753 mmHg 48%
    18:00 +28°C° 0 mm 4 mps 753 mmHg 53%
    19:00 +26°C° 0 mm 4 mps 752 mmHg 58%
    20:00 +25°C° 0 mm 4 mps 752 mmHg 60%
    21:00 +23°C° 0 mm 4 mps 752 mmHg 62%
    22:00 +22°C° 0 mm 4 mps 752 mmHg 64%
    23:00 +22°C° 0 mm 4 mps 752 mmHg 69%
    Show more